Showing default

ICEYE-X33, 60548

Orbit data source: Space-Track

ICEYE-X33, 60548 is an American payload satellite in SSO that was launched on Fri, 16 Aug 2024 UTC via an FALCON 9 launch vehicle from the Air Force Western Test Range (AFWTR). Payload-class satellites include a variety of spacecraft equipped with specific instruments for various scientific and technological missions. These include communications satellites like Starlink; space stations such as the ISS; scientific satellites like the Hubble; Earth observation satellites from companies like Planet Labs, Umbra, and HawkEye 360; GPS; miniature CubeSats for education and research; and military/defense satellites.

Loading next visibility...
Identifier
60548, 2024-149CJ
Orbit
SSO
Country
Flag of USUS
Related business
Manufacturer
ICEYE
Mission
Operational Commercial Radar Imaging
Bus & Motor
ICEYE, Unknown motor
Mass
80 kg wet, 80 kg dry
Launch date (UTC)
2024-08-16 (1 year ago)
Launch vehicle
FALCON 9
Launch site
Air Force Western Test Range (AFWTR)
Object type
Payload
Rocket body
Debris
Shape & HBR
Box + 1 Pan, 0.8 m
Radar Cross Section
0.776 m², Medium (>0.1 m² and < 1m²)

Expand to show TLE details & history
Last TLE update: 10 hours ago

TLE from 10 hours ago
0 ICEYE-X33
1 60548U 24149CJ  25345.22562365  .00008411  00000-0  67945-3 0  9991
2 60548  97.7010  60.8517 0005016  41.3142 318.8461 15.00059926 72011
Epoch: 2025-12-11T05:24Z
TLE epoch observation values (Epoch: 2025-12-11T05:24:53.883Z)
Latitude
0.00007°
Longitude
-100.55747°
Altitude
567.143 km
Speed
7.579 km/s
True Right ascension
04h 03m 24s
True Declination
0° 00' 00"
Sunlit
Object was in full shadow at epoch
Visualization orbit readout
Latitude
Unknown
Longitude
Unknown
Altitude
Unknown
Speed
Unknown
Apparent Right ascension
Unknown
Apparent Declination
Unknown
Sunlit
N/A
Visualization observer readout
Local Sidereal Time
14:06:24
Azimuth
Unknown
Elevation
Unknown
Doppler factor
Unknown
Orbital elements
Apogee altitude
567.199 km
Perigee altitude
560.235 km
Semi-major axis
6,941.854 km
Eccentricity
0.0005
Inclination
97.701°
RAAN
60.8517°
Arg. of periapsis
41.3142°
True anomaly
318.80826°
Mean anomaly
318.8461°
Eccentric anomaly
318.82718°
Mean motion
3.75258 °/min
Orbital period
95.93 mins
BSTAR
0.00067945
Loading maneuver chart data...
Computing Atmospheric mass density...
Loading historical data...
Loading historical data...
Loading historical data...
Loading historical data...
Loading historical data...
Loading historical data...
Loading historical data...

Documentation

Showing up to 5 results
|